When you browse on this site, cookies collect data to enhance your experience and personalize the content and advertising you see.
Visit our Privacy Policy to learn more. By continuing to use the site, you agree to this use of cookies and data.
  • In Österreich
  • Länderverzeichnis
  • Für 7 Tage
  • Wassertemperatur
  • Satellitenkarten
  • Wetterkarte
  • News
  • Widgets
  • user-avatar
    Anmelden

    Stündliche Wetter Roquefort-sur-Soulzon

    Heute, 19 Februar, Dienstag

    Zeit Temperatur Niederschläge Wind Luftdruck Luftfeuchtigkeit
    00:00 +6°C° 0 mm 2 m/S 718 mmHg 96%
    01:00 +6°C° 0 mm 2 m/S 718 mmHg 96%
    02:00 +5°C° 0 mm 2 m/S 717 mmHg 96%
    03:00 +5°C° 0 mm 2 m/S 717 mmHg 96%
    04:00 +6°C° 0 mm 1 m/S 717 mmHg 96%
    05:00 +6°C° 0 mm 1 m/S 717 mmHg 97%
    06:00 +5°C° 0 mm 1 m/S 717 mmHg 96%
    07:00 +6°C° 0 mm 1 m/S 717 mmHg 91%
    08:00 +7°C° 0 mm 1 m/S 718 mmHg 87%
    09:00 +7°C° 0 mm 2 m/S 718 mmHg 83%
    10:00 +8°C° 0 mm 1 m/S 718 mmHg 79%
    11:00 +9°C° 0 mm 1 m/S 717 mmHg 75%
    12:00 +10°C° 0 mm 1 m/S 717 mmHg 71%
    13:00 +10°C° 0 mm 1 m/S 717 mmHg 70%
    14:00 +10°C° 0 mm 1 m/S 717 mmHg 68%
    15:00 +11°C° 0 mm 1 m/S 717 mmHg 67%
    16:00 +9°C° 0 mm 1 m/S 717 mmHg 75%
    17:00 +7°C° 0 mm 1 m/S 716 mmHg 82%
    18:00 +6°C° 0 mm 1 m/S 716 mmHg 90%
    19:00 +5°C° 0 mm 1 m/S 717 mmHg 91%
    20:00 +4°C° 0 mm 0 m/S 717 mmHg 93%
    21:00 +3°C° 0 mm 0 m/S 717 mmHg 94%
    22:00 +3°C° 0 mm 0 m/S 717 mmHg 94%
    23:00 +3°C° 0 mm 0 m/S 717 mmHg 94%

    Morgen, 20 Februar, Mittwoch

    Zeit Temperatur Niederschläge Wind Luftdruck Luftfeuchtigkeit
    00:00 +4°C° 0 mm 1 m/S 717 mmHg 94%
    01:00 +3°C° 0 mm 1 m/S 717 mmHg 94%
    02:00 +3°C° 0 mm 1 m/S 717 mmHg 94%
    03:00 +3°C° 0 mm 1 m/S 717 mmHg 93%
    04:00 +3°C° 0 mm 1 m/S 717 mmHg 93%
    05:00 +3°C° 0 mm 1 m/S 717 mmHg 92%
    06:00 +2°C° 0 mm 1 m/S 717 mmHg 91%
    07:00 +4°C° 0 mm 1 m/S 718 mmHg 83%
    08:00 +6°C° 0 mm 1 m/S 718 mmHg 75%
    09:00 +8°C° 0 mm 1 m/S 719 mmHg 66%
    10:00 +10°C° 0 mm 1 m/S 719 mmHg 59%
    11:00 +12°C° 0 mm 1 m/S 719 mmHg 52%
    12:00 +14°C° 0 mm 1 m/S 719 mmHg 45%
    13:00 +14°C° 0 mm 1 m/S 719 mmHg 45%
    14:00 +14°C° 0 mm 1 m/S 719 mmHg 45%
    15:00 +14°C° 0 mm 1 m/S 719 mmHg 45%
    16:00 +12°C° 0 mm 1 m/S 719 mmHg 55%
    17:00 +9°C° 0 mm 1 m/S 719 mmHg 66%
    18:00 +7°C° 0 mm 1 m/S 719 mmHg 77%
    19:00 +6°C° 0 mm 1 m/S 719 mmHg 80%
    20:00 +6°C° 0 mm 1 m/S 720 mmHg 82%
    21:00 +5°C° 0 mm 1 m/S 720 mmHg 85%
    22:00 +5°C° 0 mm 1 m/S 720 mmHg 84%
    23:00 +5°C° 0 mm 1 m/S 720 mmHg 82%

    übermorgen, 21 Februar, Donnerstag

    Zeit Temperatur Niederschläge Wind Luftdruck Luftfeuchtigkeit
    00:00 +4°C° 0 mm 1 m/S 720 mmHg 81%
    01:00 +4°C° 0 mm 1 m/S 720 mmHg 79%
    02:00 +4°C° 0 mm 1 m/S 721 mmHg 77%
    03:00 +4°C° 0 mm 1 m/S 721 mmHg 75%
    04:00 +4°C° 0 mm 1 m/S 721 mmHg 74%
    05:00 +4°C° 0 mm 1 m/S 721 mmHg 73%
    06:00 +4°C° 0 mm 1 m/S 721 mmHg 71%
    07:00 +6°C° 0 mm 1 m/S 721 mmHg 65%
    08:00 +8°C° 0 mm 1 m/S 722 mmHg 58%
    09:00 +10°C° 0 mm 1 m/S 723 mmHg 51%
    10:00 +12°C° 0 mm 1 m/S 723 mmHg 46%
    11:00 +14°C° 0 mm 1 m/S 723 mmHg 41%
    12:00 +16°C° 0 mm 1 m/S 723 mmHg 36%
    13:00 +16°C° 0 mm 1 m/S 723 mmHg 36%
    14:00 +16°C° 0 mm 1 m/S 723 mmHg 37%
    15:00 +16°C° 0 mm 1 m/S 723 mmHg 38%
    16:00 +13°C° 0 mm 1 m/S 723 mmHg 46%
    17:00 +11°C° 0 mm 1 m/S 723 mmHg 55%
    18:00 +7°C° 0 mm 0 m/S 723 mmHg 63%
    19:00 +7°C° 0 mm 0 m/S 723 mmHg 64%
    20:00 +8°C° 0 mm 1 m/S 724 mmHg 64%
    21:00 +7°C° 0 mm 1 m/S 724 mmHg 65%
    22:00 +7°C° 0 mm 1 m/S 724 mmHg 65%
    23:00 +7°C° 0 mm 1 m/S 724 mmHg 66%

    22 Februar, Freitag

    Zeit Temperatur Niederschläge Wind Luftdruck Luftfeuchtigkeit
    00:00 +7°C° 0 mm 1 m/S 724 mmHg 66%
    01:00 +6°C° 0 mm 1 m/S 724 mmHg 67%
    02:00 +6°C° 0 mm 1 m/S 724 mmHg 67%
    03:00 +6°C° 0 mm 1 m/S 724 mmHg 67%
    04:00 +5°C° 0 mm 2 m/S 724 mmHg 67%
    05:00 +4°C° 0 mm 2 m/S 723 mmHg 67%
    06:00 +4°C° 0 mm 2 m/S 723 mmHg 67%
    07:00 +6°C° 0 mm 2 m/S 723 mmHg 62%
    08:00 +8°C° 0 mm 2 m/S 724 mmHg 56%
    09:00 +10°C° 0 mm 2 m/S 724 mmHg 51%
    10:00 +13°C° 0 mm 2 m/S 724 mmHg 47%
    11:00 +15°C° 0 mm 2 m/S 723 mmHg 43%
    12:00 +17°C° 0 mm 3 m/S 723 mmHg 39%
    13:00 +17°C° 0 mm 3 m/S 723 mmHg 40%
    14:00 +17°C° 0 mm 3 m/S 723 mmHg 41%
    15:00 +18°C° 0 mm 3 m/S 722 mmHg 42%
    16:00 +15°C° 0 mm 2 m/S 722 mmHg 51%
    17:00 +13°C° 0 mm 2 m/S 722 mmHg 61%
    18:00 +9°C° 0 mm 2 m/S 722 mmHg 70%
    19:00 +8°C° 0 mm 2 m/S 722 mmHg 73%
    20:00 +9°C° 0 mm 1 m/S 722 mmHg 75%
    21:00 +8°C° 0 mm 1 m/S 722 mmHg 77%
    22:00 +7°C° 0 mm 1 m/S 722 mmHg 77%
    23:00 +7°C° 0 mm 1 m/S 722 mmHg 77%

    23 Februar, Samstag

    Zeit Temperatur Niederschläge Wind Luftdruck Luftfeuchtigkeit
    00:00 +7°C° 0 mm 1 m/S 722 mmHg 77%
    01:00 +7°C° 0 mm 1 m/S 722 mmHg 76%
    02:00 +7°C° 0 mm 1 m/S 722 mmHg 75%
    03:00 +7°C° 0 mm 1 m/S 722 mmHg 74%
    04:00 +6°C° 0 mm 1 m/S 722 mmHg 75%
    05:00 +6°C° 0 mm 1 m/S 722 mmHg 75%
    06:00 +6°C° 0 mm 1 m/S 722 mmHg 76%
    07:00 +8°C° 0 mm 1 m/S 722 mmHg 70%
    08:00 +10°C° 0 mm 1 m/S 723 mmHg 64%
    09:00 +12°C° 0 mm 1 m/S 723 mmHg 59%
    10:00 +14°C° 0 mm 1 m/S 723 mmHg 53%
    11:00 +15°C° 0 mm 2 m/S 723 mmHg 47%
    12:00 +17°C° 0 mm 2 m/S 723 mmHg 42%
    13:00 +17°C° 0 mm 2 m/S 723 mmHg 43%
    14:00 +17°C° 0 mm 2 m/S 723 mmHg 44%
    15:00 +18°C° 0 mm 1 m/S 723 mmHg 45%
    16:00 +14°C° 0 mm 1 m/S 722 mmHg 55%
    17:00 +12°C° 0 mm 1 m/S 722 mmHg 65%
    18:00 +9°C° 0 mm 0 m/S 722 mmHg 75%
    19:00 +8°C° 0 mm 0 m/S 722 mmHg 77%
    20:00 +9°C° 0 mm 1 m/S 722 mmHg 78%
    21:00 +8°C° 0 mm 1 m/S 723 mmHg 80%
    22:00 +8°C° 0 mm 1 m/S 723 mmHg 82%
    23:00 +8°C° 0 mm 1 m/S 722 mmHg 84%

    24 Februar, Sonntag

    Zeit Temperatur Niederschläge Wind Luftdruck Luftfeuchtigkeit
    00:00 +8°C° 0 mm 1 m/S 722 mmHg 86%
    01:00 +7°C° 0 mm 1 m/S 722 mmHg 88%
    02:00 +7°C° 0 mm 1 m/S 722 mmHg 90%
    03:00 +7°C° 0 mm 1 m/S 722 mmHg 92%
    04:00 +6°C° 0 mm 1 m/S 722 mmHg 93%
    05:00 +6°C° 0 mm 1 m/S 722 mmHg 94%
    06:00 +5°C° 0 mm 2 m/S 722 mmHg 95%
    07:00 +6°C° 0 mm 2 m/S 723 mmHg 90%
    08:00 +7°C° 0 mm 2 m/S 723 mmHg 85%
    09:00 +9°C° 0 mm 2 m/S 723 mmHg 80%
    10:00 +10°C° 0 mm 2 m/S 723 mmHg 73%
    11:00 +13°C° 0 mm 2 m/S 723 mmHg 66%
    12:00 +15°C° 0 mm 2 m/S 723 mmHg 59%
    13:00 +15°C° 0 mm 2 m/S 723 mmHg 59%
    14:00 +16°C° 0 mm 2 m/S 723 mmHg 59%
    15:00 +16°C° 0 mm 2 m/S 723 mmHg 59%
    16:00 +14°C° 0 mm 2 m/S 723 mmHg 70%
    17:00 +12°C° 0 mm 1 m/S 723 mmHg 81%
    18:00 +10°C° 0 mm 1 m/S 723 mmHg 92%
    19:00 +9°C° 0 mm 1 m/S 724 mmHg 93%
    20:00 +8°C° 0 mm 1 m/S 724 mmHg 94%
    21:00 +7°C° 0 mm 0 m/S 724 mmHg 95%
    22:00 +6°C° 0 mm 0 m/S 724 mmHg 96%
    23:00 +6°C° 0 mm 0 m/S 724 mmHg 96%
    Mehr zeigen